This demonstration page uses our WeatherBlox Daily Observations layout. Learn more.

Left ArrowRight Arrow

41.55636, -103.73856

Hourly Observations for July 17, 2018

Temp ( °F °C ) Dew Point ( °F °C ) Humidity (%) Winds ( mph kmh ) Pressure ( in mb ) Visibility ( mi km ) Precip ( " mm )
12:58 am 00:58 Mostly Cloudy 60 15.4 57 14.1 92 92 ESE 12 19 30.08 1019 10 16 N/A
1:58 am 01:58 Mostly Cloudy 59 15.2 57 14 93 93 SSE 7 11 30.07 1018 10 16 N/A
2:58 am 02:58 Clear 59 15 56 13.5 91 91 S 3 6 30.07 1018 10 16 N/A
3:58 am 03:58 Clear 57 14 55 12.7 92 92 SSW 6 9 30.09 1019 10 16 N/A
4:58 am 04:58 Clear 56 13.4 54 12.4 94 94 W 5 7 30.12 1020 10 16 N/A
5:58 am 05:58 Sunny 56 13.1 54 12.4 96 96 N N/A 30.14 1021 10 16 N/A
6:58 am 06:58 Sunny 59 15 56 13.6 91 91 N N/A 30.13 1020 10 16 0.01 0.25
7:58 am 07:58 Sunny 63 17 57 14 83 83 S 7 11 30.14 1021 10 16 N/A
8:58 am 08:58 Sunny 65 18.3 57 14 76 76 SSW 7 11 30.12 1020 10 16 N/A
9:58 am 09:58 Sunny 68 19.8 59 14.9 74 74 N N/A 30.15 1021 10 16 N/A
10:58 am 10:58 Sunny 72 22 59 15 65 65 SW 3 6 30.14 1021 10 16 N/A
11:58 am 11:58 Sunny 76 24.5 57 13.8 51 51 SSE 6 9 30.12 1020 10 16 N/A
12:58 pm 12:58 Sunny 78 25.5 57 13.9 49 49 ESE 7 11 30.10 1019 10 16 N/A
1:58 pm 13:58 Sunny 80 26.6 57 14 46 46 SE 12 19 30.07 1018 10 16 N/A
2:58 pm 14:58 Mostly Sunny 82 27.6 57 13.9 43 43 SSE 13 20 30.05 1018 10 16 N/A
3:58 pm 15:58 Mostly Sunny 78 25.4 55 12.8 46 46 S 9 15 30.07 1018 10 16 N/A
4:58 pm 16:58 Mostly Cloudy with Light Showers 74 23.4 58 14.6 58 58 SW 12 19 30.13 1020 10 16 0.01 0.25
5:58 pm 17:58 Mostly Sunny 74 23.5 60 15.6 61 61 S 10 17 30.05 1018 10 16 0.02 0.51
6:58 pm 18:58 Sunny 74 23.6 59 15 59 59 S 12 19 30.01 1016 10 16 N/A
7:58 pm 19:58 Sunny 72 22 63 17 73 73 S 13 20 30.01 1016 10 16 N/A
8:58 pm 20:58 Clear 68 20 61 16 78 78 SSE 12 19 30.02 1017 10 16 N/A
9:58 pm 21:58 Clear 68 20 61 16 78 78 S 17 28 30.02 1017 10 16 N/A
10:58 pm 22:58 Mostly Clear 64 17.9 60 15.3 85 85 S 8 13 30.01 1016 10 16 N/A
11:58 pm 23:58 Clear 65 18.3 58 14.7 80 80 S 9 15 30.00 1016 10 16 N/A

Powered by AerisWeather